Location: Newark
(51.0500°N, 12.4500°E)
Time: 12:31:52
(UTC+00:00)

Vanguard 1 - Pass Details

Date: 27 February 2020
Orbit: 649 x 3833 km, 34.2° (Epoch: 05 April)

Event Time Altitude Azimuth Distance (km) Brightness Sun altitude
Rises 05:13:23 0° 217° (SW) 7,769 14.3 -8.1°
Reaches altitude 10° 05:19:22 10° 209° (SSW) 6,892 14.1 -7.2°
Maximum altitude 05:38:31 34° 155° (SSE) 4,851 14.0 -4.2°
Drops below altitude 10° 05:53:49 10° 99° (E) 5,574 16.1 -1.8°
Sets 05:57:55 0° 91° (E) 6,192 16.4 -1.2°
